Find Starlink 31494

NORAD ID: 59238 Int'l Des: 2024-049 Owner: SPXS Country: US Constellation: starlink operational
LEOCIRCULAR

現在のビュー

3D地球を読み込み中...

About Starlink 31494

Starlink 31494 (NORAD 59238) is a starlink constellation satellite (v2 mini) launched Mar 16, 2024 by SPXS of US. It operates in LEO, CIRCULAR orbit with a mass of 730.00 kg.

次回通過

Passes for default location (London). Set your location on the main map for personalized predictions.

高度履歴

Loading altitude history...

軌道要素

1 59238U 24049H 26237.15665331 -.00000422 00000-0 -58017-5 0 9992
2 59238 43.0034 271.8909 0001254 267.7758 92.2950 15.27572273138171
Epoch: Aug 25, 2026 • Age: 35 hours

現在のステータス

高度 482.7 km
遠地点 / 近地点 N/A
速度 7.63 km/s
衛星直下点 -0.05°S, 74.62°E
打ち上げ日 Mar 16, 2024
運用期間 2.4 years
タイプ internet

技術仕様

分類 Payload
質量 730.00 kg
乾燥質量 700.00 kg
総質量 730.00 kg
長さ 0.30 m
直径 4.10 m
スパン 29.00 m
形状 Box + pan
製造者 SPXS
バスタイプ Starlink V2M
フェーズステータス In Orbit
所有者/国 SPXS/US

Most Searched